Back to catalog

SL-8 DEB

AliveLEO
NORAD 5301·DEBRIS·🇷🇺 Russia

Launched Apr 23, 1971 from Plesetsk Cosmodrome

Loading…

Next Passes (next 24 hours)

TLE

FreshSource: Space-Track

Epoch: Sep 14, 2026, 10:29 UTC

1 05301U 71035D   26257.43746714  .00004381  00000-0  46027-3 0  9991
2 05301  74.0236  47.3170 0008735 192.0190 168.0785 14.89763458925220

Track SL-8 DEB in real time with AllMySat

Download on the App Store